This is the latest recevied weather packets stored in our database for station/object K6POO-1. If no packets are shown the sender has not sent any weather packets the latest 10 day(s).
| Time | Temp. | Humidity | Pressure | Rain* | Wind** | Luminosity | Snow |
|---|---|---|---|---|---|---|---|
| 1787956809 | 16.67° C | 81% | 1016.1 hPa | 0 mm | - | 270 W/m² | - |
| 1787956504 | 16.67° C | 81% | 1016 hPa | 0 mm | - | 312 W/m² | - |
| 1787956199 | 16.67° C | 82% | 1015.9 hPa | 0 mm | - | 355 W/m² | - |
| 1787955898 | 16.67° C | 81% | 1016 hPa | 0 mm | - | 341 W/m² | - |
| 1787955595 | 16.67° C | 82% | 1016.1 hPa | 0 mm | - | 337 W/m² | - |
| 1787955290 | 16.67° C | 83% | 1016.1 hPa | 0 mm | - | 269 W/m² | - |
| 1787954989 | 16.67° C | 81% | 1016.4 hPa | 0 mm | - | 289 W/m² | - |
| 1787954680 | 16.67° C | 80% | 1016.5 hPa | 0 mm | - | 323 W/m² | - |
| 1787954379 | 17.22° C | 79% | 1016.5 hPa | 0 mm | - | 351 W/m² | - |
| 1787954075 | 17.22° C | 79% | 1016.3 hPa | 0 mm | - | 370 W/m² | - |
| 1787953773 | 17.78° C | 78% | 1016.5 hPa | 0 mm | - | 400 W/m² | - |
| 1787953469 | 17.22° C | 79% | 1016.7 hPa | 0 mm | - | 432 W/m² | - |
| 1787953166 | 17.78° C | 79% | 1016.6 hPa | 0 mm | - | 469 W/m² | - |
| 1787952860 | 17.22° C | 79% | 1016.6 hPa | 0 mm | - | 441 W/m² | - |
| 1787952560 | 17.22° C | 80% | 1016.8 hPa | 0 mm | - | 432 W/m² | - |
| 1787952258 | 16.67° C | 82% | 1016.8 hPa | 0 mm | - | 435 W/m² | - |
| 1787951955 | 17.22° C | 80% | 1016.6 hPa | 0 mm | - | 416 W/m² | - |
| 1787951650 | 17.22° C | 80% | 1017 hPa | 0 mm | - | 418 W/m² | - |
| 1787951346 | 17.22° C | 81% | 1016.7 hPa | 0 mm | - | 457 W/m² | - |
| 1787951041 | 16.67° C | 82% | 1016.9 hPa | 0 mm | - | 454 W/m² | - |
| 1787950737 | 16.67° C | 81% | 1017 hPa | 0 mm | - | 463 W/m² | - |
| 1787950433 | 16.67° C | 82% | 1017 hPa | 0 mm | - | 417 W/m² | - |
| 1787950129 | 16.67° C | 83% | 1017.1 hPa | 0 mm | - | 496 W/m² | - |
| 1787949825 | 16.67° C | 83% | 1017.1 hPa | 0 mm | - | 523 W/m² | - |
| 1787949524 | 16.67° C | 84% | 1017.2 hPa | 0 mm | - | 535 W/m² | - |
* Rain latest hour (hover to see other rain measurements)
** Current wind speed in m/s (hover to see current wind gust speed)